Погода в Новой Потьме

Россия / Республика Мордовия     54°02′34″N   42°58′10″E
темп.,
°C
ветер,
м/с
пор.,
м/с
влажн.,
%
обл.,
%
осадки,
мм/ч
давл.,
гПа
погр.,
м
27 января, ср
ср2700:00+1ю71492100 0.0 1016590
03:00+1ююв81692100 0.0 1015564
06:00+1ю81788100 0.0 1014616
09:00+1ю81693100 0.0 1013645
12:00+1ю81696100 0.3 1014631
15:00+1ю71497100 0.4 1013598
18:00+1ю81594100 0.9 1013537
21:00+1ю81594100 2.6 1013552
28 января, чт
чт2800:00+1ю61395100 1.3 1013538
03:000ю51195100 2.4 1013462
06:00−1ююв61288100 0.4 1012402
09:00−3ююв61191100 0.4 1013423
12:00−2ююв61091100 0.0 1013429
15:00−2ююв5992100 0.0 1012448
18:00−4ююв4993100 0.0 1012380
21:00−4ююв5894100 0.1 1012454
29 января, пт
пт2900:00−4ююв4694100 0.1 1011310
03:00−4юв4694100 0.1 1010274
06:00−5юв5993100 0.1 1008395
09:00−5юв5993100 0.1 1006407
12:00−3ююв5992100 0.1 1004468
15:00−2ююв5996100 0.7 1002516
18:00−2ююз51196100 0.9 1001391
21:00−3ю6139196 1.0 1001305
30 января, сб
сб3000:00−4ю6139418 0.0 1000357
03:00−1ю7139259 0.1 998836
06:00−2ю71395100 0.4 996811
09:00−2ююз81495100 1.1 997933
12:00−2юз5996100 0.4 999643
15:00−3юз61186100 1.3 1001784
18:00−4ююз5119298 0.1 1003567
21:00−5ююз5119399 0.1 1004418
31 января, вс
вс3100:00−5ю5994100 0.0 1004305
03:00−4ю4796100 0.6 1003326
06:00−4юв2398100 1.3 1001115
09:00−3з1198100 2.1 100138
12:00−2зюз239486 0.1 1003268
15:00−2зюз239392 0.1 1005137
18:00−5юз239391 0.0 100721
21:00−5ююз229296 0.0 100823